| time (UTC) | temp F | wind direction | speed knots | gust knots | rain 1hr in | rain 24hr in | rain mn in | humidity % | barometer mb |
| 20260507050047 | 49 | 96 | 0.0 | 0.0 | 0.00 | 0.24 | 0.00 | 92 | 1008.8 |
| 20260507044513 | 49 | 28 | 0.0 | 0.0 | 0.00 | 0.24 | 0.00 | 92 | 1008.7 |
| 20260507043044 | 49 | 28 | 0.0 | 0.0 | 0.00 | 0.24 | 0.00 | 93 | 1008.7 |
| 20260507041525 | 49 | 28 | 0.0 | 0.9 | 0.00 | 0.24 | 0.00 | 92 | 1008.7 |
| 20260507040036 | 49 | 28 | 0.0 | 0.0 | 0.00 | 0.24 | 0.00 | 92 | 1008.9 |
| 20260507034504 | 50 | 28 | 0.0 | 0.0 | 0.00 | 0.24 | 0.24 | 91 | 1008.8 |
| 20260507033033 | 50 | 28 | 0.0 | 0.0 | 0.00 | 0.24 | 0.24 | 91 | 1009.1 |
| 20260507031558 | 50 | 29 | 0.0 | 0.0 | 0.00 | 0.24 | 0.24 | 89 | 1008.6 |
| 20260507030021 | 51 | 29 | 0.0 | 0.0 | 0.00 | 0.24 | 0.24 | 89 | 1008.5 |
| 20260507024603 | 51 | 29 | 0.0 | 1.7 | 0.00 | 0.24 | 0.24 | 88 | 1008.5 |
| 20260507023001 | 51 | 29 | 0.0 | 0.9 | 0.00 | 0.24 | 0.24 | 89 | 1008.7 |
| 20260507021533 | 51 | 29 | 0.0 | 2.6 | 0.00 | 0.24 | 0.24 | 88 | 1009.4 |
| 20260507020112 | 51 | 29 | 0.0 | 1.7 | 0.00 | 0.24 | 0.24 | 88 | 1009.2 |
| 20260507014539 | 51 | 360 | 1.7 | 5.2 | 0.00 | 0.24 | 0.24 | 87 | 1009.3 |
| 20260507013045 | 51 | 9 | 2.6 | 7.0 | 0.00 | 0.24 | 0.24 | 88 | 1009.2 |
| 20260507011554 | 52 | 11 | 0.0 | 3.5 | 0.00 | 0.24 | 0.24 | 89 | 1009.3 |
| 20260507010015 | 52 | 360 | 1.7 | 4.3 | 0.00 | 0.24 | 0.24 | 88 | 1008.9 |
| 20260507004541 | 52 | 360 | 3.5 | 7.0 | 0.00 | 0.24 | 0.24 | 88 | 1008.6 |
| 20260507003101 | 53 | 360 | 2.6 | 4.3 | 0.00 | 0.24 | 0.24 | 87 | 1008.3 |
| 20260507001526 | 53 | 11 | 4.3 | 7.8 | 0.00 | 0.24 | 0.24 | 87 | 1007.9 |
| 20260507000033 | 54 | 360 | 4.3 | 7.0 | 0.00 | 0.24 | 0.24 | 86 | 1007.5 |
| 20260506234612 | 54 | 13 | 0.0 | 0.9 | 0.00 | 0.24 | 0.24 | 87 | 1007.3 |
| 20260506233018 | 55 | 360 | 2.6 | 7.0 | 0.00 | 0.24 | 0.24 | 86 | 1007.1 |
| 20260506231544 | 55 | 360 | 0.0 | 5.2 | 0.00 | 0.24 | 0.24 | 87 | 1006.6 |
| 20260506224520 | 57 | 360 | 0.0 | 2.6 | 0.00 | 0.24 | 0.24 | 88 | 1006.1 |
| 20260506223054 | 57 | 360 | 0.9 | 7.8 | 0.00 | 0.24 | 0.24 | 88 | 1005.5 |
| 20260506221501 | 59 | 328 | 0.0 | 8.7 | 0.00 | 0.24 | 0.24 | 87 | 1005.2 |
| 20260506220031 | 62 | 331 | 4.3 | 12.2 | 0.00 | 0.24 | 0.24 | 88 | 1004.9 |
| 20260506214604 | 63 | 360 | 0.0 | 7.0 | 0.00 | 0.24 | 0.24 | 91 | 1004.2 |
| 20260506213029 | 63 | 360 | 0.0 | 2.6 | 0.00 | 0.24 | 0.24 | 90 | 1004.1 |
| 20260506211603 | 63 | 360 | 3.5 | 7.8 | 0.00 | 0.24 | 0.24 | 90 | 1003.9 |
| 20260506210009 | 63 | 360 | 0.9 | 6.1 | 0.00 | 0.24 | 0.24 | 90 | 1003.7 |
| 20260506204547 | 64 | 244 | 0.9 | 7.8 | 0.00 | 0.24 | 0.24 | 90 | 1003.5 |
| 20260506203007 | 64 | 250 | 1.7 | 8.7 | 0.00 | 0.24 | 0.24 | 90 | 1003.5 |
| 20260506201553 | 63 | 200 | 1.7 | 9.6 | 0.00 | 0.24 | 0.24 | 91 | 1003.4 |
| 20260506200058 | 63 | 257 | 0.9 | 10.4 | 0.00 | 0.24 | 0.24 | 91 | 1003.5 |
| 20260506194521 | 63 | 194 | 0.9 | 5.2 | 0.00 | 0.24 | 0.24 | 92 | 1003.6 |
| 20260506193036 | 62 | 197 | 2.6 | 7.0 | 0.00 | 0.24 | 0.24 | 93 | 1003.7 |
| 20260506191610 | 62 | 360 | 3.5 | 9.6 | 0.00 | 0.24 | 0.24 | 93 | 1003.7 |
| 20260506190025 | 62 | 197 | 4.3 | 9.6 | 0.00 | 0.24 | 0.24 | 93 | 1003.8 |
| 20260506184607 | 62 | 207 | 1.7 | 12.2 | 0.00 | 0.24 | 0.24 | 95 | 1003.7 |
| 20260506183005 | 61 | 192 | 0.9 | 8.7 | 0.00 | 0.24 | 0.24 | 96 | 1003.9 |
| 20260506181537 | 60 | 205 | 0.0 | 3.5 | 0.00 | 0.24 | 0.24 | 97 | 1004.2 |
| 20260506180054 | 60 | 360 | 1.7 | 7.0 | 0.01 | 0.24 | 0.24 | 97 | 1004.2 |
| 20260506174518 | 60 | 360 | 0.9 | 3.5 | 0.01 | 0.24 | 0.24 | 97 | 1004.2 |
| 20260506173034 | 59 | 360 | 0.9 | 3.5 | 0.01 | 0.24 | 0.24 | 97 | 1004.2 |
| 20260506171604 | 59 | 360 | 0.0 | 4.3 | 0.01 | 0.24 | 0.24 | 96 | 1004.3 |
| 20260506170041 | 59 | 360 | 0.0 | 2.6 | 0.00 | 0.23 | 0.23 | 96 | 1004.4 |
| 20260506164551 | 59 | 360 | 0.0 | 1.7 | 0.00 | 0.23 | 0.23 | 96 | 1004.3 |
| 20260506163020 | 59 | 360 | 0.0 | 0.9 | 0.01 | 0.23 | 0.23 | 96 | 1004.3 |
| 20260506161540 | 59 | 190 | 0.0 | 2.6 | 0.02 | 0.23 | 0.23 | 96 | 1004.4 |
| 20260506160115 | 59 | 190 | 0.0 | 3.5 | 0.04 | 0.23 | 0.23 | 96 | 1004.3 |
| 20260506154531 | 59 | 263 | 0.0 | 2.6 | 0.05 | 0.23 | 0.23 | 96 | 1004.2 |
| 20260506153054 | 59 | 360 | 0.0 | 0.0 | 0.06 | 0.22 | 0.22 | 96 | 1004.0 |
| 20260506151522 | 59 | 198 | 0.0 | 0.0 | 0.06 | 0.21 | 0.21 | 95 | 1004.4 |
| 20260506150046 | 59 | 198 | 0.0 | 0.9 | 0.06 | 0.19 | 0.19 | 95 | 1004.6 |
| 20260506144515 | 59 | 198 | 0.0 | 2.6 | 0.06 | 0.17 | 0.17 | 95 | 1004.5 |
| 20260506143044 | 59 | 199 | 0.0 | 2.6 | 0.06 | 0.16 | 0.16 | 95 | 1004.5 |
| 20260506141600 | 59 | 211 | 0.0 | 0.9 | 0.06 | 0.15 | 0.15 | 95 | 1004.5 |
| 20260506140002 | 59 | 211 | 0.0 | 0.0 | 0.07 | 0.13 | 0.13 | 94 | 1004.6 |
| 20260506134532 | 59 | 211 | 0.0 | 2.6 | 0.07 | 0.11 | 0.11 | 94 | 1004.7 |
| 20260506133103 | 59 | 360 | 0.0 | 3.5 | 0.08 | 0.10 | 0.10 | 93 | 1004.6 |
| 20260506131533 | 59 | 210 | 0.0 | 0.0 | 0.08 | 0.09 | 0.09 | 93 | 1004.8 |
| 20260506130100 | 60 | 209 | 0.0 | 0.0 | 0.05 | 0.06 | 0.06 | 91 | 1005.0 |
| 20260506124524 | 60 | 209 | 0.0 | 0.0 | 0.04 | 0.04 | 0.04 | 90 | 1005.2 |
| 20260506123046 | 60 | 210 | 0.0 | 0.9 | 0.02 | 0.02 | 0.02 | 88 | 1005.3 |
| 20260506121518 | 61 | 210 | 0.9 | 4.3 | 0.01 | 0.01 | 0.01 | 85 | 1005.1 |
| 20260506120042 | 62 | 360 | 4.3 | 13.0 | 0.01 | 0.01 | 0.01 | 81 | 1004.9 |
| 20260506114505 | 63 | 192 | 1.7 | 7.0 | 0.00 | 0.00 | 0.00 | 79 | 1004.7 |
| 20260506113035 | 64 | 360 | 0.9 | 5.2 | 0.00 | 0.00 | 0.00 | 75 | 1004.6 |
| 20260506111505 | 64 | 250 | 0.0 | 0.0 | 0.00 | 0.00 | 0.00 | 73 | 1004.5 |
| 20260506110034 | 65 | 196 | 0.0 | 0.9 | 0.00 | 0.00 | 0.00 | 70 | 1004.2 |
| 20260506104501 | 65 | 194 | 0.0 | 0.9 | 0.00 | 0.00 | 0.00 | 69 | 1004.1 |
| 20260506103018 | 66 | 202 | 0.0 | 2.6 | 0.00 | 0.00 | 0.00 | 69 | 1003.9 |
| 20260506101550 | 66 | 202 | 2.6 | 7.8 | 0.00 | 0.00 | 0.00 | 67 | 1003.7 |
| 20260506100002 | 67 | 189 | 0.9 | 7.0 | 0.00 | 0.00 | 0.00 | 66 | 1003.5 |
| 20260506094534 | 67 | 191 | 3.5 | 8.7 | 0.00 | 0.00 | 0.00 | 65 | 1003.8 |
| 20260506093103 | 66 | 212 | 0.9 | 6.1 | 0.00 | 0.00 | 0.00 | 66 | 1003.9 |
| 20260506091529 | 65 | 207 | 0.9 | 4.3 | 0.00 | 0.00 | 0.00 | 66 | 1003.9 |
| 20260506084525 | 64 | 200 | 0.0 | 0.0 | 0.00 | 0.00 | 0.00 | 67 | 1004.0 |
| 20260506083032 | 65 | 200 | 0.0 | 1.7 | 0.00 | 0.00 | 0.00 | 65 | 1004.1 |
| 20260506081608 | 65 | 200 | 0.0 | 4.3 | 0.00 | 0.00 | 0.00 | 64 | 1004.0 |
| 20260506073021 | 64 | 206 | 0.0 | 0.9 | 0.00 | 0.00 | 0.00 | 65 | 1004.0 |
| 20260506071551 | 62 | 360 | 0.9 | 3.5 | 0.00 | 0.00 | 0.00 | 69 | 1004.1 |
| 20260506061541 | 59 | 360 | 0.0 | 1.7 | 0.00 | 0.00 | 0.00 | 77 | 1004.9 |